This demonstration page uses our WeatherBlox Daily Observations layout. Learn more.

Left ArrowRight Arrow

Hourly Observations for December 31, 2021

Temp ( °F °C ) Dew Point ( °F °C ) Humidity (%) Winds ( mph kmh ) Pressure ( in mb ) Visibility ( mi km ) Precip ( " mm )
12:03 am 00:03 Cloudy with Mist and Fog 52 11.1 52 11.1 100 100 NNE 5 7 29.94 1014 2 3 0.00 0.00
12:05 am 00:05 Cloudy with Mist and Fog 52 11.1 52 11.1 100 100 NNE 6 9 29.94 1014 2 2 0.00 0.00
12:10 am 00:10 Mostly Cloudy with Mist and Fog 52 11.1 52 11.1 100 100 NNE 5 7 29.94 1014 1 2 0.00 0.00
12:16 am 00:16 Mostly Cloudy with Fog 52 11.1 52 11.1 100 100 NE 5 7 29.94 1014 1 1 0.00 0.00
12:59 am 00:59 Mostly Cloudy with Fog 52 11.1 52 11.1 100 100 NE 3 6 29.93 1013 1 1 0.00 0.00
1:21 am 01:21 Mostly Cloudy with Fog 52 11.1 52 11.1 100 100 NE 5 7 29.92 1013 1 1 0.00 0.00
1:29 am 01:29 Mostly Cloudy with Fog 52 11.1 52 11.1 100 100 NE 5 7 29.92 1013 0 0 0.00 0.00
1:59 am 01:59 Mostly Cloudy with Fog 52 11.1 52 11.1 100 100 E 3 6 29.92 1013 0 0 0.00 0.00
2:59 am 02:59 Mostly Cloudy with Light Rain 52 11.1 52 11.1 100 100 NNE 6 9 29.93 1014 0 0 0.00 0.00
3:38 am 03:38 Mostly Cloudy with Fog 52 11.1 52 11.1 100 100 N 5 7 29.94 1014 1 1 0.00 0.00
3:53 am 03:53 Mostly Cloudy with Fog 52 11 52 11 100 100 NE 5 7 29.94 1014 0 0 0.00 0.00
3:59 am 03:59 Mostly Cloudy with Fog 52 11.1 52 11.1 100 100 NNE 3 6 29.93 1014 0 0 0.00 0.00
4:17 am 04:17 Mostly Cloudy with Fog 52 11.1 52 11.1 100 100 ENE 5 7 29.92 1013 1 1 0.00 0.00
4:28 am 04:28 Mostly Cloudy with Mist and Fog 52 11.1 52 11.1 100 100 NNE 5 7 29.93 1014 1 1 0.00 0.00
4:41 am 04:41 Mostly Cloudy with Fog 52 11.1 52 11.1 100 100 N 5 7 29.93 1014 1 1 0.00 0.00
4:59 am 04:59 Mostly Cloudy with Fog 51 10.6 51 10.6 100 100 NE 6 9 29.93 1013 0 0 0.00 0.00
5:08 am 05:08 Mostly Cloudy with Fog 51 10.6 51 10.6 100 100 NNE 5 7 29.93 1014 0 0 0.00 0.00
5:47 am 05:47 Mostly Cloudy with Fog 51 10.6 51 10.6 100 100 N 5 7 29.95 1014 1 1 0.00 0.00
5:59 am 05:59 Mostly Cloudy with Fog 52 11.1 52 11.1 100 100 NNE 3 6 29.95 1014 0 0 0.00 0.00
6:59 am 06:59 Mostly Cloudy with Fog 52 11.1 52 11.1 100 100 N 6 9 29.98 1015 0 0 0.00 0.00
7:46 am 07:46 Mostly Cloudy with Fog 52 11.1 52 11.1 100 100 N 5 7 30.00 1016 N/A 0.00 0.00
7:59 am 07:59 Mostly Cloudy with Fog 52 11.1 52 11.1 100 100 N 3 6 30.00 1016 N/A 0.00 0.00
8:13 am 08:13 Mostly Cloudy with Fog 52 11.1 52 11.1 100 100 N 5 7 30.01 1016 0 0 0.00 0.00
8:59 am 08:59 Mostly Cloudy with Fog 52 11.1 52 11.1 100 100 NE 6 9 30.00 1016 0 0 0.00 0.00
9:35 am 09:35 Mostly Cloudy with Fog 53 11.7 53 11.7 100 100 NE 5 7 30.01 1016 0 0 0.00 0.00
9:54 am 09:54 Mostly Cloudy with Fog 54 12 54 12 100 100 Calm 30.01 1016 1 1 0.00 0.00
9:59 am 09:59 Mostly Cloudy with Fog 53 11.7 53 11.7 100 100 Calm 30.02 1017 1 1 0.00 0.00
10:32 am 10:32 Cloudy with Fog 54 12.2 54 12.2 100 100 WNW 6 9 30.04 1017 1 1 0.00 0.00
10:49 am 10:49 Cloudy with Mist and Fog 54 12.2 54 12.2 100 100 SW 3 6 30.03 1017 1 2 0.00 0.00
10:53 am 10:53 Cloudy with Mist and Fog 55 13 55 13 100 100 SW 5 7 30.03 1017 2 3 0.00 0.00
10:57 am 10:57 Cloudy with Mist and Fog 54 12 54 12 100 100 WSW 6 9 30.03 1017 3 5 0.00 0.00
10:59 am 10:59 Cloudy with Mist and Fog 54 12.2 54 12.2 100 100 WSW 6 9 30.03 1017 3 5 0.00 0.00
11:59 am 11:59 Cloudy with Mist and Fog 54 12.2 54 12.2 100 100 VRB 3 6 30.00 1016 4 6 0.00 0.00
12:59 pm 12:59 Cloudy with Mist and Fog 55 12.8 55 12.8 100 100 SSE 5 7 29.98 1015 4 6 0.00 0.00
1:59 pm 13:59 Cloudy with Mist and Fog 56 13.3 56 13.3 100 100 SSW 5 7 29.97 1015 3 5 0.00 0.00
2:51 pm 14:51 Cloudy with Mist and Fog 57 13.9 57 13.9 100 100 SSW 6 9 29.97 1015 6 10 0.00 0.00
2:59 pm 14:59 Cloudy 57 13.9 56 13.3 96 96 S 3 6 29.96 1015 7 11 0.00 0.00
3:14 pm 15:14 Cloudy 57 13.9 57 13.9 100 100 SSW 5 7 29.97 1015 7 11 0.00 0.00
3:59 pm 15:59 Cloudy 58 14.4 57 13.9 97 97 SW 7 11 29.97 1015 8 13 0.00 0.00
4:34 pm 16:34 Cloudy 58 14.4 57 13.9 97 97 Calm 29.98 1015 9 14 0.00 0.00
4:47 pm 16:47 Mostly Cloudy 57 13.9 57 13.9 100 100 S 3 6 29.97 1015 9 14 0.00 0.00
4:59 pm 16:59 Mostly Cloudy 57 13.9 57 13.9 100 100 Calm 29.97 1015 9 14 0.00 0.00
5:59 pm 17:59 Mostly Cloudy 57 13.9 57 13.9 100 100 Calm 29.98 1015 9 14 0.00 0.00
6:59 pm 18:59 Cloudy 57 13.9 57 13.9 100 100 VRB 5 7 29.97 1015 8 13 0.00 0.00
7:24 pm 19:24 Mostly Cloudy 57 13.9 57 13.9 100 100 S 5 7 29.97 1015 8 13 0.00 0.00
7:33 pm 19:33 Mostly Cloudy 57 13.9 57 13.9 100 100 SSW 3 6 29.98 1015 7 11 0.00 0.00
7:57 pm 19:57 Cloudy 57 14 57 14 100 100 S 5 7 29.99 1016 7 11 0.00 0.00
7:59 pm 19:59 Cloudy 57 13.9 57 13.9 100 100 S 3 6 29.98 1015 7 11 0.00 0.00
8:59 pm 20:59 Mostly Cloudy with Mist and Fog 57 13.9 57 13.9 100 100 S 8 13 29.97 1015 6 10 0.00 0.00
9:29 pm 21:29 Cloudy with Mist and Fog 57 13.9 57 13.9 100 100 S 10 17 29.96 1015 6 10 0.00 0.00
9:45 pm 21:45 Cloudy with Mist and Fog 58 14.4 58 14.4 100 100 S 10 17 29.95 1014 6 10 0.00 0.00
9:59 pm 21:59 Cloudy with Mist and Fog 58 14.4 58 14.4 100 100 S 9 15 29.95 1014 5 8 0.00 0.00
10:59 pm 22:59 Cloudy with Mist and Fog 60 15.6 60 15.6 100 100 S 12 19 29.95 1014 6 10 0.00 0.00
11:17 pm 23:17 Cloudy 60 15.6 60 15.6 100 100 S 10 17 29.95 1014 7 11 0.00 0.00
11:42 pm 23:42 Cloudy 60 15.6 60 15.6 100 100 S 10 17 29.93 1014 8 13 0.00 0.00
11:59 pm 23:59 Mostly Cloudy 60 15.6 60 15.6 100 100 S 9 15 29.93 1013 8 13 0.00 0.00

Powered by AerisWeather